EW7003 Weather Reports


time (UTC)temp
C
wind
direction
speed
KPH
gust
KPH
rain 1hr
cm
rain 24hr
cm
rain mn
cm
humidity
%
barometer
mb
20260505053719 11 36 17.7 24.1 0.00 0.00 0.00 58 1009.1
20260505053219 11 40 19.3 27.4 0.00 0.00 0.00 57 1009.0
20260505052715 11 45 20.9 25.7 0.00 0.00 0.00 56 1008.8
20260505052212 11 56 22.5 25.7 0.00 0.00 0.00 55 1008.8
20260505051729 11 44 17.7 25.7 0.00 0.00 0.00 55 1008.7
20260505051226 11 44 22.5 25.7 0.00 0.00 0.00 54 1008.6
20260505050723 11 45 20.9 29.0 0.00 0.00 0.00 54 1008.4
20260505050220 11 38 22.5 29.0 0.00 0.00 0.00 53 1008.1
20260505041719 13 57 20.9 30.6 0.00 0.00 0.00 47 1008.2
20260505041215 13 52 19.3 24.1 0.00 0.00 0.00 47 1008.4
20260505040712 13 51 19.3 29.0 0.00 0.00 0.00 47 1008.3
20260505040229 13 55 20.9 30.6 0.00 0.00 0.00 46 1008.5
20260505035726 13 64 25.7 32.2 0.00 0.00 0.00 45 1008.4
20260505035223 13 69 22.5 32.2 0.00 0.00 0.00 45 1008.3
20260505034720 13 63 25.7 33.8 0.00 0.00 0.00 45 1008.3
20260505034222 13 53 22.5 33.8 0.00 0.00 0.00 45 1008.4
20260505033718 13 63 22.5 35.4 0.00 0.00 0.00 44 1008.3
20260505033215 13 61 29.0 38.6 0.00 0.00 0.00 44 1008.1
20260505032732 13 62 29.0 40.2 0.00 0.00 0.00 44 1008.0
20260505032227 13 49 30.6 38.6 0.00 0.00 0.00 44 1007.9
20260505031723 13 61 29.0 38.6 0.00 0.00 0.00 44 1007.7
20260505031219 14 53 29.0 38.6 0.00 0.00 0.00 44 1007.7
20260505030714 14 50 30.6 37.0 0.00 0.00 0.00 43 1007.4
20260505030231 14 59 27.4 43.5 0.00 0.00 0.00 43 1007.3
20260505025746 14 62 33.8 43.5 0.00 0.00 0.00 43 1007.3
20260505025226 14 59 33.8 40.2 0.00 0.00 0.00 43 1007.2
20260505024722 14 65 29.0 43.5 0.00 0.00 0.00 43 1007.2
20260505024219 14 57 33.8 45.1 0.00 0.00 0.00 42 1007.1
20260505023716 14 50 33.8 45.1 0.00 0.00 0.00 42 1007.2
20260505023213 15 61 30.6 45.1 0.00 0.00 0.00 42 1007.1
20260505022727 15 52 29.0 40.2 0.00 0.00 0.00 42 1007.0
20260505022224 15 34 32.2 43.5 0.00 0.00 0.00 42 1006.8
20260505021725 15 55 37.0 43.5 0.00 0.00 0.00 41 1006.6
20260505021222 15 42 27.4 43.5 0.00 0.00 0.00 42 1006.3
20260505020719 15 56 29.0 48.3 0.00 0.00 0.00 41 1006.2
20260505020235 15 45 32.2 48.3 0.00 0.00 0.00 40 1006.1
20260505015710 16 41 30.6 49.9 0.00 0.00 0.00 40 1006.2
20260505015226 16 50 38.6 51.5 0.00 0.00 0.00 39 1006.1
20260505014723 16 50 38.6 51.5 0.00 0.00 0.00 38 1006.0
20260505014220 16 61 40.2 48.3 0.00 0.00 0.00 38 1005.6
20260505013721 16 49 35.4 46.7 0.00 0.00 0.00 38 1005.6
20260505013218 16 59 37.0 49.9 0.00 0.00 0.00 38 1005.4
20260505012714 16 51 35.4 49.9 0.00 0.00 0.00 38 1005.2
20260505012211 17 49 32.2 43.5 0.00 0.00 0.00 38 1005.0
20260505011729 17 45 30.6 48.3 0.00 0.00 0.00 38 1004.9
20260505011245 17 360 35.4 48.3 0.00 0.00 0.00 37 1004.8
20260505010721 17 360 33.8 51.5 0.00 0.00 0.00 37 1004.7
20260505010237 17 360 38.6 51.5 0.00 0.00 0.00 36 1004.5
20260505005733 18 35 38.6 54.7 0.00 0.00 0.00 36 1004.6
20260505005250 18 39 38.6 51.5 0.00 0.00 0.00 35 1004.6
20260505004729 18 43 35.4 48.3 0.00 0.00 0.00 34 1004.5
20260505004246 19 44 37.0 48.3 0.00 0.00 0.00 34 1004.5
20260505003722 19 32 35.4 45.1 0.00 0.00 0.00 34 1004.4
20260505003219 19 34 35.4 46.7 0.00 0.00 0.00 34 1004.4
20260505002716 19 32 40.2 46.7 0.00 0.00 0.00 33 1004.3
20260505002212 20 36 38.6 46.7 0.00 0.00 0.00 33 1004.2
20260505001749 20 50 35.4 43.5 0.00 0.00 0.00 31 1004.1
20260505001224 21 46 24.1 32.2 0.00 0.00 0.00 27 1004.2
20260505000741 21 40 17.7 25.7 0.00 0.00 0.00 26 1004.2
20260505000215 21 40 17.7 25.7 0.00 0.00 0.00 26 1004.2
20260504235717 21 23 9.7 19.3 0.00 0.00 0.00 26 1004.1
20260504235213 21 21 12.9 19.3 0.00 0.00 0.00 26 1004.2
20260504234710 21 14 14.5 20.9 0.00 0.00 0.00 26 1004.2
20260504234226 21 32 16.1 20.9 0.00 0.00 0.00 26 1004.1
20260504233723 21 9 8.0 25.7 0.00 0.00 0.00 26 1004.1
20260504233220 21 25 20.9 25.7 0.00 0.00 0.00 26 1004.0
20260504232738 21 38 14.5 22.5 0.00 0.00 0.00 26 1003.9
20260504232217 21 27 14.5 20.9 0.00 0.00 0.00 26 1004.0
20260504231714 21 24 14.5 22.5 0.00 0.00 0.00 26 1004.1
20260504231210 21 14 12.9 20.9 0.00 0.00 0.00 26 1004.0
20260504230727 22 26 14.5 24.1 0.00 0.00 0.00 25 1003.9
20260504230224 22 26 12.9 22.5 0.00 0.00 0.00 24 1003.9
20260504225741 22 21 16.1 22.5 0.00 0.00 0.00 25 1004.0
20260504225216 22 355 16.1 22.5 0.00 0.00 0.00 26 1004.1
20260504224713 22 5 14.5 22.5 0.00 0.00 0.00 27 1004.1
20260504224214 21 325 14.5 22.5 0.00 0.00 0.00 27 1004.2
20260504223751 21 346 14.5 20.9 0.00 0.00 0.00 28 1004.3
20260504223226 21 340 14.5 25.7 0.00 0.00 0.00 28 1004.2
20260504222723 21 337 16.1 27.4 0.00 0.00 0.00 28 1004.3
20260504222220 21 324 19.3 25.7 0.00 0.00 0.00 27 1004.4
20260504221717 21 344 17.7 29.0 0.00 0.00 0.00 28 1004.5
20260504221213 21 316 20.9 29.0 0.00 0.00 0.00 28 1004.6
20260504220710 21 317 14.5 22.5 0.00 0.00 0.00 28 1004.7
20260504220210 21 306 17.7 30.6 0.00 0.00 0.00 27 1004.8
20260504215727 21 293 22.5 46.7 0.00 0.00 0.00 28 1004.8
20260504215224 21 291 27.4 46.7 0.00 0.00 0.00 27 1004.9
20260504214721 21 300 29.0 40.2 0.00 0.00 0.00 27 1004.9
20260504214216 22 311 29.0 40.2 0.00 0.00 0.00 25 1004.9
20260504213712 22 258 17.7 32.2 0.00 0.00 0.00 22 1004.9
20260504213229 22 302 19.3 41.8 0.00 0.00 0.00 22 1004.6
20260504212710 22 26 12.9 43.5 0.00 0.00 0.00 21 1004.4
20260504212227 22 265 16.1 43.5 0.00 0.00 0.00 21 1004.3
20260504211744 22 251 25.7 35.4 0.00 0.00 0.00 21 1004.5
20260504211218 22 229 19.3 32.2 0.00 0.00 0.00 20 1004.4
20260504210735 22 243 22.5 45.1 0.00 0.00 0.00 21 1004.4
20260504210250 22 253 30.6 45.1 0.00 0.00 0.00 21 1004.4
20260504205726 23 236 17.7 30.6 0.00 0.00 0.00 20 1004.4
20260504205241 23 231 16.1 22.5 0.00 0.00 0.00 20 1004.3
20260504204717 23 244 11.3 20.9 0.00 0.00 0.00 18 1004.2
20260504204214 24 189 3.2 6.4 0.00 0.00 0.00 18 1004.1
20260504203715 23 269 3.2 12.9 0.00 0.00 0.00 17 1004.2
20260504203232 23 348 4.8 12.9 0.00 0.00 0.00 16 1004.2
20260504202728 23 258 6.4 9.7 0.00 0.00 0.00 17 1004.3
20260504202244 23 307 1.6 19.3 0.00 0.00 0.00 16 1004.3
20260504201720 23 15 9.7 19.3 0.00 0.00 0.00 16 1004.3
20260504201217 24 333 16.1 19.3 0.00 0.00 0.00 17 1004.3
20260504200734 24 275 14.5 19.3 0.00 0.00 0.00 17 1004.3
20260504200250 24 5 12.9 22.5 0.00 0.00 0.00 17 1004.2
20260504195746 24 360 12.9 22.5 0.00 0.00 0.00 16 1004.3
20260504195222 25 21 11.3 32.2 0.00 0.00 0.00 15 1004.2
20260504194740 25 324 12.9 32.2 0.00 0.00 0.00 15 1004.4
20260504194218 25 310 16.1 24.1 0.00 0.00 0.00 15 1004.4
20260504193715 25 355 6.4 30.6 0.00 0.00 0.00 15 1004.4
20260504193211 25 310 17.7 35.4 0.00 0.00 0.00 15 1004.6
20260504192728 25 313 22.5 35.4 0.00 0.00 0.00 17 1004.5
20260504192226 25 326 17.7 29.0 0.00 0.00 0.00 17 1004.6
20260504191722 25 347 16.1 29.0 0.00 0.00 0.00 16 1004.6
20260504191219 25 26 16.1 29.0 0.00 0.00 0.00 17 1004.7
20260504190720 25 346 16.1 25.7 0.00 0.00 0.00 17 1004.8
20260504190217 25 24 17.7 25.7 0.00 0.00 0.00 18 1004.7
20260504185714 24 17 14.5 24.1 0.00 0.00 0.00 18 1004.9
20260504185210 24 338 14.5 29.0 0.00 0.00 0.00 17 1004.9
20260504184727 24 314 19.3 29.0 0.00 0.00 0.00 19 1005.0
20260504184224 24 343 16.1 27.4 0.00 0.00 0.00 18 1005.2
20260504183741 24 344 19.3 30.6 0.00 0.00 0.00 18 1005.2
20260504183221 24 331 24.1 30.6 0.00 0.00 0.00 19 1005.4
20260504182718 23 331 17.7 27.4 0.00 0.00 0.00 20 1005.4
20260504182215 23 337 20.9 29.0 0.00 0.00 0.00 21 1005.5
20260504181712 23 355 17.7 30.6 0.00 0.00 0.00 20 1005.6
20260504181229 23 360 17.7 30.6 0.00 0.00 0.00 21 1005.7
20260504180726 22 316 12.9 32.2 0.00 0.00 0.00 22 1005.7
20260504180223 22 337 20.9 32.2 0.00 0.00 0.00 21 1005.9
20260504175718 22 13 20.9 30.6 0.00 0.00 0.00 22 1005.9
20260504175240 22 355 16.1 32.2 0.00 0.00 0.00 22 1006.0
20260504174715 22 13 24.1 32.2 0.00 0.00 0.00 23 1006.1
20260504174212 22 5 14.5 30.6 0.00 0.00 0.00 24 1006.2
20260504173729 22 25 19.3 30.6 0.00 0.00 0.00 25 1006.2
20260504173225 22 313 19.3 30.6 0.00 0.00 0.00 25 1006.4
20260504172722 22 329 20.9 30.6 0.00 0.00 0.00 24 1006.4
20260504172219 22 12 17.7 30.6 0.00 0.00 0.00 24 1006.5
20260504171737 22 10 16.1 27.4 0.00 0.00 0.00 27 1006.5
20260504171217 22 341 19.3 25.7 0.00 0.00 0.00 26 1006.6
20260504170713 21 355 17.7 27.4 0.00 0.00 0.00 27 1006.6
20260504170229 21 5 19.3 25.7 0.00 0.00 0.00 27 1006.6
20260504160231 21 321 16.1 20.9 0.00 0.00 0.00 28 1006.4
20260504150718 20 307 16.1 22.5 0.00 0.00 0.00 31 1006.3
20260504150218 20 294 17.7 25.7 0.00 0.00 0.00 31 1006.2
20260504141228 16 274 19.3 25.7 0.00 0.00 0.00 40 1006.4
20260504140725 15 271 16.1 20.9 0.00 0.00 0.00 43 1006.4
20260504140221 14 288 16.1 19.3 0.00 0.00 0.00 44 1006.4
20260504130711 8 258 11.3 16.1 0.00 0.00 0.00 59 1006.4
20260504130228 8 262 12.9 17.7 0.00 0.00 0.00 59 1006.4
20260504120210 5 260 11.3 16.1 0.00 0.00 0.00 65 1006.4
20260504110719 5 262 12.9 14.5 0.00 0.00 0.00 65 1006.2
20260504110216 5 260 12.9 14.5 0.00 0.00 0.00 64 1006.2
20260504100218 6 261 12.9 12.9 0.00 0.00 0.00 64 1006.4
20260504081718 8 260 9.7 12.9 0.00 0.00 0.00 53 1007.0
20260504081215 8 266 9.7 12.9 0.00 0.00 0.00 52 1007.0
20260504080712 9 277 6.4 14.5 0.00 0.00 0.00 52 1007.0
20260504080228 9 260 11.3 14.5 0.00 0.00 0.00 52 1007.0
20260504070229 11 246 11.3 14.5 0.00 0.00 0.00 46 1007.6
20260504060219 13 148 6.4 11.3 0.00 0.00 0.00 42 1007.9